Back to catalog

GAOFEN 12

AliveScienceSSO
NORAD 44819·PAYLOAD·🇨🇳 China

Launched Nov 27, 2019 from Taiyuan Satellite Launch Center

Loading…

Next Passes (next 24 hours)

TLE

FreshSource: Space-Track

Epoch: Sep 14, 2026, 15:09 UTC

1 44819U 19082A   26257.63179674  .00000261  00000-0  40697-4 0  9990
2 44819  97.8148 261.6718 0002460  95.4230 264.7263 14.80518209367320

Track GAOFEN 12 in real time with AllMySat

Download on the App Store